パンスターズ彗星

455P/PanSTARRS (2011)

English version
Home page
Updated on February 8, 2023

---------------------------------------------------------------------

・ プロフィール

符号 455P/2011 Q5

・ 軌道要素

                    Epoch = 2011 Dec. 25.0 TT
     T = 2011 Dec. 19.54334 TT        Peri. = 238.27081
     e = 0.3049760                    Node  = 146.26882 2000.0
     q = 2.1934173 AU                 Incl. =  14.13518
       a =  3.1558869 AU   n = 0.17580123   P =   5.61 years

・ 光度変化

        m1 = 16.5 + 5 logΔ + 10.0 log r

---------------------------------------------------------------------

軌道要素は、CBET 5200に掲載されたものです。
光度グラフはComet for Windowsで作成したものです。

---------------------------------------------------------------------

Copyright(C) Seiichi Yoshida (comet@aerith.net). All rights reserved.